Location: Caltech
(34.1382°N, 118.1253°W)
Time: 07:06:28
(UTC-07:00)

Iridium 3 - Visible Passes

Search period start: 28 June 2017 00:00
Search period end: 08 July 2017 00:00
Orbit: 776 x 779 km, 86.4° (Epoch: 27 June)

Date Brightness Start Highest point End Pass type
(mag) Time Alt. Az. Time Alt. Az. Time Alt. Az.
28 Jun 5.5 23:17:28 78° NNW 23:17:28 78° NNW 23:22:23 10° N visible
29 Jun 5.9 22:43:51 48° E 22:43:51 48° E 22:48:42 10° NNE visible
30 Jun 7.8 00:24:18 15° W 00:24:39 15° WNW 00:27:39 10° NW visible
30 Jun 6.7 22:10:13 25° E 22:10:21 25° E 22:14:34 10° NNE visible
30 Jun 6.9 23:50:40 29° W 23:50:53 29° W 23:55:24 10° NNW visible
01 Jul 7.4 21:36:34 13° E 21:37:08 13° E 21:39:26 10° NE visible
01 Jul 5.9 23:17:01 56° W 23:17:15 57° W 23:22:23 10° N visible
02 Jul 5.4 22:43:22 70° SE 22:43:44 74° E 22:48:56 10° N visible
03 Jul 6.1 22:09:41 36° ESE 22:10:19 37° E 22:15:05 10° NNE visible
03 Jul 7.5 23:50:08 19° W 23:51:06 20° W 23:54:53 10° NNW visible
04 Jul 7.0 21:36:00 18° E 21:37:02 20° E 21:40:41 10° NE visible
04 Jul 6.6 23:16:27 35° WSW 23:17:23 38° W 23:22:14 10° NNW visible
05 Jul 5.6 22:42:44 56° SSW 22:43:48 75° W 22:49:01 10° N visible
06 Jul 5.6 22:09:02 44° SE 22:10:20 56° E 22:15:26 10° NNE visible
06 Jul 8.0 23:49:28 11° W 23:51:22 13° WNW 23:53:49 10° NW visible
07 Jul 6.5 21:35:17 24° ESE 21:36:58 29° E 21:41:24 10° NNE visible
07 Jul 7.3 23:15:43 21° WSW 23:17:35 26° W 23:21:53 10° NNW visible
